Wind_Speed
10 10 9 6 5 7 4 1 1 1 1 1 1 1 1 1 1 1 3 3 2 1 2 3 5 4 4 5 7 4 4 3 3 5 3 5 28 36 29 32 36 32 31 29 27 25 23 21 22 23 20 19 17 15 15 15 16 17 17 17 17 18 17 16 15 15 15 14 14 13 13 13 12 12 11 11 10 9 9 9 9 8 8 7 6 6 7 6 5 4 4 4 4 3 3 3 3
10 8 7 5 5 5 1 1 2 2 2 2 1 1 2 2 2 2 6 5 2 3 2 4 6 6 7 7 5 4 4 4 2 4 2 18 33 29 31 36 37 34 31 29 27 26 24 21 22 23 20 19 17 15 15 15 15 16 17 16 17 17 16 15 15 15 14 14 13 13 12 12 12 11 11 10 9 8 8 8 8 8 7 7 5 5 5 6 5 4 4 4 3 3 3 3 3
8 6 5 5 3 2 1 2 2 1 2 1 2 0 1 2 2 2 5 4 3 5 5 5 6 4 6 6 3 3 2 3 6 7 7 25 26 24 36 38 37 35 31 30 28 26 24 22 21 22 21 19 17 16 15 15 14 16 16 17 18 17 16 15 15 14 14 14 13 12 12 11 11 11 10 10 9 8 7 8 8 7 7 6 5 3 3 4 4 4 4 3 3 3 3 3 2
7 4 3 4 1 1 1 2 2 1 2 1 2 1 0 3 3 2 4 4 6 6 4 4 3 2 4 6 3 4 3 2 8 9 10 21 23 31 40 38 38 34 32 30 28 27 24 22 21 21 20 19 18 16 16 15 15 15 14 16 17 16 16 16 15 14 14 14 13 13 13 12 11 10 10 9 9 8 7 6 6 6 6 6 6 4 2 2 2 3 3 2 2 2 2 2 2
6 3 1 2 1 0 1 2 1 2 1 1 1 2 1 2 7 6 4 7 7 5 3 4 2 2 5 4 2 3 5 5 7 11 16 20 29 40 40 39 38 34 33 30 29 28 25 22 20 20 20 19 18 17 16 15 15 15 14 15 16 16 16 15 14 14 14 14 13 13 12 11 10 10 9 8 8 7 7 5 5 5 4 5 5 5 3 3 3 2 2 1 1 1 2 1 2
4 2 1 1 2 2 2 2 2 3 1 1 1 2 2 3 6 9 6 7 2 5 5 4 4 5 4 2 2 3 6 8 9 12 20 27 35 42 41 40 38 35 33 30 30 28 25 22 21 20 19 19 17 17 16 15 14 14 14 15 15 16 15 14 14 13 13 13 12 12 11 10 9 9 8 7 7 6 5 5 4 4 4 3 3 3 3 3 3 3 2 1 1 1 2 2 1
3 1 1 2 0 1 3 3 2 3 0 1 2 1 3 3 1 8 4 5 2 5 6 5 6 6 3 2 3 5 9 8 11 15 24 34 40 42 41 40 37 35 33 31 30 28 26 23 21 20 20 20 18 17 16 15 14 14 14 14 14 15 15 14 13 13 13 12 12 11 11 10 9 9 8 7 6 5 5 4 4 4 3 3 3 3 2 2 3 3 3 2 1 1 2 1 2
3 1 0 2 1 2 3 3 2 2 1 1 1 0 2 0 2 3 5 3 5 5 7 6 6 6 2 3 3 7 14 11 14 21 29 38 42 41 40 39 37 35 32 31 29 27 25 23 22 21 21 19 18 17 16 15 14 14 14 14 14 14 14 14 13 13 12 12 11 11 10 9 9 8 8 7 5 4 4 4 4 3 3 3 3 3 3 3 3 4 3 2 2 2 1 2 3
3 0 0 2 2 2 2 2 2 2 2 3 1 0 2 1 2 2 6 5 7 6 8 7 3 6 2 5 5 5 14 18 22 28 34 38 41 41 39 38 37 34 32 31 29 27 25 23 22 21 21 19 18 17 16 15 14 14 14 14 14 13 14 13 13 13 12 11 11 10 9 8 8 7 6 6 5 4 4 4 4 4 3 3 3 3 3 3 3 4 4 3 2 1 1 2 4
1 1 0 2 2 2 2 1 2 3 2 3 2 0 2 3 3 4 5 5 8 7 6 5 4 7 5 6 4 4 15 26 30 30 33 37 40 39 37 37 37 35 33 30 29 27 25 23 21 21 21 19 18 17 16 15 14 14 14 14 13 13 14 13 12 12 12 12 11 10 9 8 7 6 6 5 4 3 4 4 4 4 4 4 3 3 3 3 3 3 3 3 2 1 1 3 3
2 2 1 3 3 2 2 2 3 3 3 3 1 1 2 2 1 3 7 5 7 8 7 7 6 8 7 5 2 9 25 31 31 31 32 35 37 36 35 34 34 35 33 31 29 27 25 23 22 21 20 19 18 17 16 15 14 14 14 14 13 12 13 13 13 12 12 11 10 9 9 8 7 6 5 4 3 3 4 4 5 5 5 5 4 4 3 3 3 3 3 3 2 1 1 2 4
1 2 2 3 2 1 1 2 4 3 2 1 2 3 3 3 2 3 7 4 7 9 6 5 6 6 6 3 2 15 28 28 30 32 33 33 33 33 33 32 32 33 33 31 30 28 26 24 23 21 20 19 17 17 16 15 14 14 14 13 13 12 12 13 13 11 11 10 9 8 8 8 7 6 5 4 3 4 4 5 5 6 5 5 4 3 3 3 2 2 3 2 2 1 1 2 4
1 1 3 2 1 2 1 1 4 4 1 2 2 3 3 4 4 4 4 3 8 8 6 7 8 5 4 4 4 12 21 25 31 33 33 32 30 31 30 30 31 31 32 31 30 28 27 26 24 22 20 19 17 16 16 15 15 15 14 14 13 12 12 12 11 10 10 9 9 8 8 7 7 6 6 5 5 5 5 5 6 6 5 5 4 3 2 2 2 2 2 2 2 1 1 2 4
1 1 3 1 0 1 1 1 4 3 1 3 2 3 2 1 2 2 2 5 6 5 8 11 10 7 5 5 5 7 14 26 33 33 32 31 30 30 28 29 29 30 31 32 31 30 28 27 25 23 22 20 18 17 16 16 15 15 14 14 13 12 12 11 10 10 9 9 8 8 8 7 6 6 5 4 5 4 4 6 7 6 5 5 4 3 2 2 1 1 2 2 1 0 1 2 4
2 1 3 2 1 1 1 2 5 5 2 4 3 2 2 2 2 2 2 5 3 5 11 11 9 6 7 9 8 9 17 30 33 32 31 31 31 28 27 28 28 29 31 31 31 30 29 28 26 24 23 22 21 19 18 16 15 14 14 14 13 12 12 11 10 9 8 9 8 8 9 8 7 6 4 2 3 3 4 6 6 6 5 5 4 3 2 1 1 1 1 2 2 1 0 1 2
2 2 3 2 0 0 1 2 5 5 2 5 4 4 3 2 2 2 2 2 2 9 9 8 7 5 10 10 10 17 26 33 32 31 31 31 30 27 27 27 26 27 29 30 30 30 30 29 27 26 25 23 22 20 18 17 16 15 14 13 13 12 12 11 10 9 9 9 9 9 9 8 6 5 3 1 1 2 4 5 5 6 6 6 5 3 2 2 2 1 0 1 2 2 2 2 1
2 3 2 1 1 1 2 3 3 5 3 5 6 7 4 0 3 1 3 1 2 10 7 6 7 5 11 10 15 27 31 33 31 30 30 29 28 26 26 25 25 25 26 28 29 29 29 29 28 26 25 23 22 20 19 19 17 16 15 14 13 12 12 11 10 10 10 10 10 10 10 8 6 5 2 1 1 3 4 4 4 5 6 6 5 3 2 4 3 3 3 2 2 3 3 3 1
2 2 2 0 2 2 3 3 2 6 6 6 8 8 6 4 4 0 3 2 4 8 6 6 5 5 12 14 23 30 30 32 30 29 28 26 25 23 23 24 25 25 26 27 28 29 29 29 29 27 26 24 22 21 20 19 18 17 16 15 14 13 12 12 12 11 11 10 10 10 9 8 6 5 3 2 1 3 5 4 3 4 5 6 5 2 3 4 4 4 4 4 3 4 4 3 2
2 2 1 2 3 3 3 4 2 6 7 7 8 7 7 6 5 3 2 4 6 7 5 6 7 9 13 17 25 29 29 31 28 28 26 24 24 22 22 23 24 25 26 28 28 29 29 29 29 28 27 24 23 22 21 20 18 18 17 16 15 14 13 12 12 12 12 11 10 9 8 7 5 4 3 2 2 5 5 3 1 4 5 6 5 3 3 4 5 5 5 6 6 5 5 4 4
1 1 1 4 4 2 2 4 3 5 8 7 6 4 5 5 3 3 2 3 6 7 6 8 9 11 14 16 22 26 27 28 26 27 26 25 25 23 23 23 24 25 27 28 28 29 29 29 29 28 26 25 24 22 22 21 19 19 18 17 16 15 13 12 12 13 13 12 10 8 7 6 4 3 2 3 4 5 5 3 1 3 4 5 5 3 4 4 6 6 7 7 8 7 7 7 6
1 3 3 5 2 2 3 4 4 5 7 6 5 4 4 4 3 2 3 3 3 5 6 10 12 14 16 16 20 24 24 24 24 25 25 25 24 24 23 24 25 25 27 27 28 29 29 30 29 27 25 24 24 23 22 21 20 20 19 18 17 15 13 13 13 14 13 13 11 9 7 5 5 3 3 4 5 5 5 3 2 3 4 4 4 4 5 5 5 6 7 8 8 9 9 10 9
1 3 4 4 3 2 4 5 6 5 6 6 6 4 3 4 2 2 5 5 4 5 5 10 13 15 18 18 19 21 20 20 21 23 24 24 24 24 23 24 24 24 25 26 28 29 30 30 29 28 26 25 24 23 22 21 20 20 20 19 17 15 14 14 14 15 15 14 12 10 8 7 6 5 4 4 5 5 5 4 3 3 4 4 5 6 6 5 5 6 8 10 10 12 12 12 11
1 3 4 4 4 3 4 5 6 6 6 6 6 4 4 4 1 2 5 5 5 5 5 10 13 15 20 20 19 19 18 17 19 22 24 25 25 25 25 24 24 24 24 25 27 28 30 31 30 29 27 26 25 23 22 21 21 21 20 19 17 16 15 14 15 16 15 14 12 10 9 8 7 7 7 6 6 6 5 4 4 4 5 5 6 7 7 6 6 7 10 12 12 13 12 12 9
2 3 4 5 4 4 5 5 6 6 6 5 5 4 4 5 3 2 4 6 6 5 5 12 14 16 18 18 17 17 17 17 20 23 24 25 25 25 25 25 24 25 24 24 26 26 30 31 30 30 29 28 26 24 23 21 22 21 20 20 18 16 15 15 15 15 14 13 11 9 9 9 9 9 9 8 8 8 6 4 4 6 6 6 5 7 8 7 7 8 11 12 11 10 10 11 6
3 4 5 4 3 5 5 5 6 6 5 4 6 5 4 6 5 4 5 7 6 5 8 13 14 15 15 15 17 16 15 17 19 21 23 23 24 24 24 24 23 24 25 25 26 25 29 31 30 30 29 29 27 26 24 22 22 21 21 22 20 17 17 15 13 13 13 13 11 10 10 11 11 11 11 10 9 9 7 5 5 6 6 4 5 6 6 7 8 10 12 11 9 8 8 10 5
7 6 6 5 3 5 5 5 6 6 4 4 6 4 5 6 4 3 7 6 4 5 11 15 15 15 14 14 15 14 14 16 18 19 22 23 23 24 24 24 23 24 26 26 26 25 27 30 32 31 30 29 28 28 27 23 22 22 22 23 21 19 18 16 13 13 14 13 12 12 11 12 13 13 13 12 11 9 7 6 6 5 4 3 4 5 5 7 9 10 11 10 8 7 6 9 5
8 7 6 7 5 4 5 6 6 5 4 5 6 4 5 5 3 2 6 5 5 7 10 14 16 15 15 14 13 14 14 17 20 19 20 22 23 24 25 26 25 25 26 27 27 26 26 29 32 31 30 29 29 29 29 26 23 23 23 23 22 21 19 17 15 14 14 14 14 13 13 13 14 14 13 12 11 10 8 7 6 5 5 4 5 6 6 8 10 10 10 9 7 7 6 8 4
8 7 3 4 2 0 3 6 6 4 2 5 7 3 3 3 3 5 5 6 8 9 7 10 14 14 14 15 14 13 14 18 22 20 18 20 22 24 26 27 26 26 26 28 29 28 26 29 31 31 30 29 29 30 30 29 26 24 23 23 23 22 21 19 17 17 16 16 15 15 15 14 14 13 12 11 11 10 8 8 6 6 6 6 6 6 7 9 10 10 9 9 8 6 7 8 6
6 7 4 1 3 2 4 4 5 5 3 5 6 1 2 4 6 7 7 8 8 10 7 6 9 10 12 13 12 11 13 19 21 21 20 21 22 23 26 27 28 27 26 29 31 30 28 29 31 31 31 30 30 31 31 30 28 26 25 24 22 22 22 22 20 20 19 18 17 17 18 16 14 13 12 11 11 11 10 9 8 8 8 7 7 7 8 9 10 10 10 8 7 7 8 9 9
4 4 3 2 4 3 7 4 4 6 4 6 7 1 4 8 10 7 7 9 9 9 8 6 5 6 7 7 8 8 11 15 18 22 24 23 23 24 23 26 30 28 26 28 31 32 30 29 32 32 32 32 31 31 31 31 30 28 27 26 24 23 23 23 23 21 21 21 20 19 19 17 15 14 13 12 12 12 12 10 10 10 9 8 7 7 8 8 9 10 9 8 7 8 9 10 11
4 2 2 2 3 4 7 5 6 6 3 6 6 2 5 7 9 8 8 10 11 9 8 7 6 5 5 5 7 6 6 9 14 21 26 25 25 25 24 24 28 29 27 29 32 33 31 29 30 32 33 33 32 32 32 32 31 29 29 28 27 24 22 23 23 22 21 20 20 20 19 17 15 15 14 13 13 13 13 13 12 10 7 7 7 6 7 8 9 9 8 9 9 9 10 10 11
2 3 2 2 3 3 7 5 9 7 2 6 6 2 5 7 7 8 9 9 11 10 8 8 7 6 6 5 6 6 5 7 9 14 22 27 26 25 26 24 25 29 28 28 31 32 32 30 29 31 33 34 34 33 33 32 31 29 29 29 28 26 24 23 23 22 22 19 18 19 18 17 17 17 15 13 13 14 15 14 12 9 7 8 8 7 8 9 9 9 8 9 11 11 12 12 11
0 3 3 3 3 2 4 5 8 8 3 4 5 2 3 5 5 7 10 11 11 9 8 8 8 7 7 6 6 7 6 6 8 10 15 24 26 25 27 27 26 26 27 28 29 31 33 31 29 31 33 34 34 34 33 32 31 30 28 28 28 27 26 25 24 23 24 22 20 20 19 19 19 17 15 13 14 15 15 14 11 9 9 10 10 10 10 8 8 9 9 8 10 13 14 13 11
2 1 2 3 4 4 2 3 5 6 5 4 6 4 6 6 3 9 12 12 11 10 9 9 8 7 7 6 6 7 8 8 10 11 15 21 25 25 26 29 28 26 25 28 30 31 33 33 31 31 32 34 34 33 34 32 32 30 27 26 27 29 28 26 26 26 25 24 23 22 21 20 19 17 15 14 14 15 16 14 11 9 10 10 10 11 10 8 7 9 10 10 10 12 13 12 11
4 3 2 3 3 6 5 4 5 9 6 6 6 5 11 10 4 8 12 12 11 10 10 9 9 9 7 7 7 8 9 9 11 15 18 22 25 23 23 27 29 27 27 28 31 32 33 33 33 32 32 33 34 33 34 33 32 31 28 25 25 28 27 24 26 27 25 23 23 22 21 19 18 18 16 16 16 15 15 14 13 11 10 9 8 8 9 8 8 8 10 11 11 11 11 10 10
5 6 5 4 3 4 7 5 6 13 8 6 8 8 11 10 6 8 10 10 10 8 8 8 8 8 8 8 8 8 10 10 14 18 21 23 24 23 23 27 27 27 29 29 30 33 33 32 32 33 33 33 34 34 34 33 31 31 29 27 26 27 26 23 24 26 24 23 22 22 21 20 19 19 18 18 17 17 16 14 13 13 12 9 8 7 8 8 9 9 9 10 11 11 10 9 8
3 2 1 5 5 4 6 5 6 12 8 7 10 10 10 7 7 9 9 9 9 9 9 8 8 9 9 10 9 10 10 9 12 18 21 23 24 23 26 28 25 23 28 32 32 33 34 33 33 34 34 34 35 35 35 33 31 30 29 28 28 28 27 25 24 25 25 23 22 22 22 21 21 21 20 19 19 18 17 15 14 14 13 10 9 8 8 8 9 9 9 10 10 11 10 8 7
2 2 3 6 4 5 6 6 7 10 6 5 8 8 11 9 7 8 9 10 10 11 12 11 11 10 9 11 11 10 8 6 8 12 16 21 24 25 27 29 25 22 25 32 33 33 34 34 34 35 34 35 36 37 36 35 34 32 29 28 28 28 28 27 26 26 24 22 21 22 23 23 23 23 21 20 19 19 17 16 14 14 14 11 9 9 8 8 9 10 10 10 10 10 11 9 7
3 3 3 5 4 3 5 4 5 9 5 4 7 8 10 9 6 8 11 12 11 12 13 12 12 11 9 10 10 10 8 6 8 10 12 19 23 24 26 28 28 24 22 29 33 32 32 34 35 35 35 36 37 38 37 36 35 33 30 28 26 26 26 26 25 23 21 20 21 22 23 24 25 23 22 20 19 19 17 16 14 13 14 12 10 9 9 9 10 11 10 11 11 11 11 10 8
2 1 0 4 5 2 5 4 4 8 5 3 6 6 5 6 2 8 11 12 9 10 12 11 11 12 12 12 10 10 11 9 10 10 11 15 20 22 23 26 28 25 22 26 31 30 30 32 34 35 37 38 38 39 38 37 34 32 30 28 24 23 23 22 22 21 21 21 22 23 24 25 26 24 21 20 19 18 17 15 14 13 13 13 12 10 10 11 10 11 10 10 10 12 12 10 8
4 2 4 4 5 2 4 2 5 5 5 2 4 2 5 4 1 6 8 7 6 6 9 8 8 9 9 9 9 10 11 11 11 11 11 13 17 21 23 26 27 25 23 26 30 30 29 31 33 34 37 38 39 39 39 36 32 30 29 26 21 20 19 19 20 22 24 25 25 24 22 22 25 24 20 19 19 17 16 14 13 13 13 13 13 12 11 11 10 10 10 9 9 11 12 12 11
5 3 4 5 5 1 2 4 7 4 5 5 4 3 5 5 1 6 7 6 7 5 7 9 8 6 5 6 7 8 9 9 10 11 11 12 16 20 23 26 26 25 24 24 27 30 30 32 33 33 35 38 38 39 38 35 32 31 30 26 22 20 20 20 22 23 25 26 25 25 21 20 24 23 20 19 18 17 16 14 13 12 12 12 12 11 11 11 11 10 9 9 9 10 12 13 13
3 4 5 3 1 3 5 6 5 3 5 6 3 4 3 4 3 7 5 5 7 4 5 8 7 6 6 6 7 7 8 7 8 9 9 11 15 18 21 25 27 27 26 23 23 28 30 32 35 34 34 36 36 37 37 35 33 32 31 29 27 25 23 24 24 24 24 24 24 24 22 21 23 22 20 19 18 17 15 13 11 11 11 12 12 12 11 11 11 9 8 9 10 11 12 12 12
3 6 3 5 6 6 2 3 1 3 3 4 1 5 3 2 4 4 2 2 3 3 3 4 5 7 6 6 7 8 8 8 8 8 9 9 14 18 21 25 27 28 28 24 22 26 30 33 36 36 35 35 35 35 37 36 34 32 31 30 28 27 26 26 25 24 24 24 24 24 22 22 23 23 20 19 19 17 15 13 11 10 10 11 13 13 12 11 11 9 8 9 9 10 11 11 11
6 7 4 6 5 4 4 2 3 2 3 5 5 4 4 3 5 4 6 3 4 6 4 3 5 7 6 6 7 8 9 9 9 9 9 9 13 20 23 25 27 28 29 27 22 23 29 33 35 36 35 35 35 36 37 37 35 33 32 30 28 28 28 27 24 21 22 25 25 24 23 23 23 23 22 20 19 18 16 15 13 12 13 12 13 14 14 12 12 11 10 10 10 10 10 11 11
6 5 6 7 5 4 5 3 2 3 4 3 7 1 4 1 6 6 4 1 5 5 4 5 6 6 6 6 7 8 7 7 8 8 8 10 14 20 23 24 26 27 27 28 23 20 26 32 35 36 35 35 36 36 37 37 35 33 32 31 29 28 27 26 22 19 20 22 23 22 23 23 23 23 23 22 20 18 17 16 16 16 15 14 14 14 15 15 14 12 11 11 11 11 10 9 9
5 4 5 6 6 4 2 1 4 4 2 6 4 4 5 2 6 5 1 3 5 5 3 2 4 5 6 6 6 7 7 6 7 7 8 11 15 19 20 21 24 25 26 26 23 20 25 31 34 36 36 35 36 36 38 37 36 34 33 32 31 30 28 26 23 21 20 20 19 18 20 22 23 24 23 23 21 19 18 18 18 18 16 16 15 14 15 17 16 13 12 12 13 12 11 10 11
1 3 4 4 5 5 5 5 4 4 2 6 2 12 12 5 3 5 5 6 3 2 3 3 4 1 2 3 2 3 5 6 7 8 8 9 11 14 17 20 22 24 27 27 23 22 25 29 32 33 33 35 35 36 37 37 36 35 33 33 33 31 30 27 25 23 22 21 21 19 17 18 22 24 24 24 22 20 19 19 19 19 18 18 17 15 14 16 17 14 12 13 14 13 13 12 12
5 5 6 5 3 5 4 4 3 2 4 6 3 11 9 3 1 5 8 10 9 7 5 6 7 7 7 6 5 4 4 3 4 5 7 7 8 11 15 20 21 23 27 26 23 24 25 27 31 32 32 34 34 35 36 36 35 35 34 34 33 32 31 29 27 26 24 23 23 22 19 17 21 24 25 24 22 20 20 20 20 21 20 19 17 14 12 14 16 14 13 13 13 14 15 15 15
5 3 4 4 2 3 2 3 2 1 4 5 4 10 4 1 2 6 7 8 8 8 8 8 8 8 7 7 7 7 7 7 5 4 4 5 7 11 15 19 21 22 24 25 24 26 26 26 30 33 33 33 34 35 36 35 36 36 36 35 34 33 32 30 28 27 26 24 23 24 23 21 21 23 24 23 21 20 19 20 21 21 20 19 17 14 12 13 14 14 14 14 11 10 12 13 16
2 4 5 4 3 3 2 3 1 2 5 4 4 6 3 2 1 5 5 6 8 9 8 8 8 8 7 7 9 9 9 9 8 7 6 6 6 10 16 19 22 23 24 25 25 26 27 26 29 33 34 33 34 35 36 36 37 36 36 35 34 33 33 32 30 28 27 26 24 24 25 24 22 23 22 21 19 19 20 20 21 21 19 18 17 15 14 14 14 15 15 12 8 6 6 7 9
2 2 4 1 3 5 2 3 4 3 1 3 4 2 1 4 3 3 5 7 9 9 8 9 9 9 8 8 10 9 8 8 8 8 7 8 11 11 15 18 21 24 25 26 27 28 28 27 29 32 34 35 34 35 37 37 37 36 35 35 34 33 32 31 30 29 28 26 24 24 25 25 23 22 21 20 19 20 21 22 21 21 19 18 18 16 17 17 16 16 16 13 10 8 8 7 6
3 3 2 4 4 6 3 1 1 3 3 1 2 3 0 0 1 4 6 6 8 8 7 8 7 7 7 6 7 7 7 7 7 7 8 8 11 12 15 21 22 23 25 27 28 29 29 28 29 31 33 34 35 35 37 37 35 34 34 34 33 31 31 30 31 30 28 27 25 23 25 26 23 22 21 20 21 22 22 22 22 21 20 19 19 17 17 17 17 18 18 16 14 11 10 10 9
2 3 4 3 2 4 4 1 3 4 2 2 2 4 1 1 1 4 6 6 7 6 5 5 4 5 6 6 7 8 8 8 7 7 8 8 10 13 13 19 24 24 26 28 29 29 30 30 30 30 29 31 35 36 35 32 32 32 32 33 32 31 31 30 30 29 28 27 25 23 25 26 24 23 22 21 23 23 23 23 23 22 21 21 19 18 18 17 16 17 18 16 14 12 11 10 10
3 3 3 2 3 2 2 2 1 1 1 2 2 4 2 2 2 2 4 4 4 5 5 5 5 5 6 7 8 8 8 8 8 8 8 8 9 13 15 14 20 24 25 26 28 28 29 31 30 29 29 32 36 36 32 31 32 33 33 33 33 32 31 30 29 29 28 28 27 24 24 24 23 23 23 24 25 25 24 24 24 23 22 21 20 19 18 18 17 17 16 14 12 11 12 12 11
4 4 3 2 3 2 1 0 2 2 2 1 1 2 0 3 4 3 3 3 3 3 4 5 5 4 5 5 7 7 7 7 8 8 8 9 11 15 17 15 13 21 23 23 27 28 28 28 27 29 32 35 37 35 33 34 34 34 33 32 33 32 31 31 29 29 29 30 29 26 23 22 22 24 24 25 26 27 26 25 25 25 24 23 22 20 19 20 20 17 14 13 12 12 12 11 10
5 4 4 4 2 1 1 1 1 2 2 2 1 1 3 4 3 4 5 5 4 2 1 4 5 3 4 5 6 6 6 6 8 8 9 9 12 16 19 18 11 16 23 23 26 27 27 29 29 29 33 36 37 36 35 37 36 34 33 32 33 33 32 31 30 29 30 30 29 27 25 23 22 23 24 24 26 26 25 25 25 25 25 23 22 21 20 20 21 18 15 14 14 13 12 11 9
3 2 3 2 1 2 3 2 3 2 3 3 4 2 5 5 3 5 5 5 4 2 2 3 5 4 5 6 6 5 5 6 7 8 9 9 11 15 18 18 11 8 21 24 26 26 28 32 32 31 33 36 38 38 37 38 37 35 34 34 34 33 32 32 31 31 30 30 29 28 26 24 24 25 23 21 23 26 24 22 23 23 23 23 22 21 21 21 20 19 17 17 16 14 12 11 10
Wind_Direction
135 135 138 142 149 139 134 135 75 325 89 66 296 343 287 257 286 147 133 164 158 180 223 152 131 135 135 123 138 126 74 129 169 150 209 171 151 159 164 161 159 156 155 154 156 157 158 162 159 149 147 148 145 145 143 137 134 133 130 127 126 125 124 125 127 126 124 122 121 121 120 122 123 124 125 128 131 135 137 133 130 129 129 124 124 132 136 139 130 123 134 131 125 116 105 80 59
135 133 139 148 154 145 143 129 101 338 66 53 325 288 308 316 283 168 162 171 143 155 170 132 117 109 111 110 123 106 48 9 111 125 110 139 144 158 163 162 160 156 156 156 157 158 159 162 160 154 151 149 146 145 143 139 139 138 135 133 131 129 126 127 128 128 125 123 125 125 124 124 125 124 124 126 128 129 129 127 123 119 115 117 125 133 140 145 143 139 144 138 128 120 101 70 42
139 142 154 157 158 155 141 86 100 343 62 60 289 295 347 296 257 167 183 192 142 150 150 132 110 97 101 95 65 91 100 7 112 108 117 141 143 160 163 161 160 157 157 157 159 159 160 161 161 160 155 151 147 148 146 144 145 139 136 137 134 131 130 131 130 128 127 128 129 128 126 126 125 124 125 126 127 125 122 121 122 125 125 127 128 128 136 138 144 144 146 140 128 120 100 78 48
148 156 174 161 119 44 80 64 133 129 81 172 281 329 247 287 290 236 207 173 150 153 149 131 85 22 89 109 101 92 124 100 134 125 136 156 155 160 161 160 160 158 158 160 160 160 161 160 161 162 157 152 150 152 149 150 148 139 139 140 135 132 131 131 130 131 131 131 130 128 127 125 124 122 123 123 122 120 117 117 122 129 135 139 135 137 152 143 144 146 139 131 124 122 109 88 54
160 157 177 155 105 359 101 75 99 83 60 211 284 303 261 342 319 284 174 143 156 149 130 117 79 49 89 115 133 121 134 122 152 146 142 158 159 158 159 159 160 159 160 162 161 162 161 160 161 160 157 153 154 154 153 155 148 144 146 141 136 134 131 129 131 132 131 130 128 128 127 124 123 121 121 120 119 118 118 119 121 123 132 142 148 161 178 179 173 160 144 137 149 136 122 94 54
179 144 85 111 148 192 92 69 60 72 41 265 128 305 325 51 323 284 158 137 169 123 103 92 107 109 91 61 56 132 147 132 155 157 147 154 159 159 159 159 160 160 162 163 164 164 160 162 163 160 158 154 156 156 156 156 150 151 150 142 139 138 134 133 134 133 132 132 132 132 130 128 129 128 123 121 121 123 126 124 122 117 116 113 129 160 171 176 174 164 153 161 184 157 129 101 56
184 151 42 52 85 161 86 80 79 84 262 271 148 222 320 80 6 285 199 147 131 107 96 99 121 108 90 81 61 138 144 138 147 155 154 153 157 159 159 160 161 161 164 165 165 164 160 163 165 161 158 156 159 159 159 157 155 157 152 146 144 142 139 140 138 137 138 136 137 138 135 136 138 136 132 131 131 131 129 118 111 106 99 85 75 81 96 134 152 150 140 142 173 165 135 87 55
196 199 72 84 13 27 84 80 85 99 123 34 360 80 345 37 124 302 275 184 129 122 116 130 127 95 60 79 81 145 134 135 142 149 152 151 156 158 159 160 160 162 165 166 166 164 161 165 166 162 159 159 162 161 161 160 161 161 154 152 150 148 145 144 144 144 142 141 143 139 138 145 149 149 149 150 147 134 122 111 100 88 82 75 66 62 67 85 120 133 128 143 171 161 129 67 54
207 359 335 90 58 24 77 83 96 105 102 100 28 31 96 241 177 126 276 259 128 134 137 152 135 101 112 84 103 153 126 131 140 145 149 151 157 158 160 162 162 163 165 167 166 164 162 167 167 163 162 162 162 163 163 162 166 163 158 158 156 153 150 148 148 148 147 149 146 140 145 152 153 157 157 156 149 124 99 90 81 69 65 57 56 62 64 73 99 122 127 148 159 145 102 63 56
331 11 15 60 72 29 32 30 79 78 64 85 68 228 163 203 195 155 242 242 134 135 132 120 91 112 130 105 121 159 126 133 138 143 150 154 157 159 161 163 164 164 166 167 166 165 163 167 168 165 163 163 165 166 165 165 169 166 164 163 160 157 155 154 153 153 153 153 148 149 158 155 154 158 153 144 128 98 73 63 60 54 49 43 55 69 70 74 88 112 126 145 149 135 67 60 62
348 322 47 64 57 35 23 360 46 53 31 57 63 274 259 219 170 214 236 215 128 123 122 100 95 117 116 108 121 132 131 137 140 145 153 156 157 160 162 164 166 166 167 167 168 167 164 167 168 166 164 165 168 168 168 169 171 170 169 166 165 164 160 159 160 161 160 158 157 160 164 162 163 157 145 128 104 79 64 51 47 43 39 35 43 64 67 65 75 100 120 143 143 116 56 60 65
48 307 47 84 70 101 126 360 58 64 358 28 193 221 232 190 136 231 236 197 120 123 138 118 136 135 103 106 129 134 136 141 146 150 154 157 159 161 162 165 168 169 169 168 169 168 166 168 168 167 166 167 169 170 172 171 173 173 172 171 169 168 166 165 164 165 166 165 165 165 163 163 161 149 133 109 88 79 65 46 41 34 28 27 28 42 55 52 60 90 116 145 145 119 54 57 70
135 189 78 96 134 138 137 23 82 92 261 264 211 233 225 184 168 213 239 165 137 141 149 135 150 144 100 116 129 140 143 147 150 152 155 159 161 162 163 166 168 170 170 170 170 170 170 169 168 169 168 169 171 173 175 176 178 176 176 176 173 174 173 170 168 170 171 170 168 165 159 154 150 146 129 90 72 76 61 42 35 29 21 16 18 21 35 45 45 83 121 152 164 163 55 57 77
168 180 103 121 76 89 161 89 81 103 251 263 231 256 254 222 216 247 257 173 159 150 137 135 142 117 109 134 135 157 153 151 153 154 157 160 162 163 164 166 168 170 171 173 172 172 173 171 170 170 170 172 173 176 180 182 182 178 180 179 178 181 178 174 173 174 175 172 170 166 159 148 139 141 129 82 64 66 48 35 28 29 23 10 14 10 18 29 26 77 122 156 196 215 73 74 87
154 158 91 103 52 43 211 113 108 127 225 246 242 252 220 262 245 268 239 179 153 139 132 139 148 121 154 170 160 174 158 152 154 156 157 158 161 163 164 165 168 170 171 173 173 173 174 173 173 173 173 175 176 181 182 184 184 181 183 182 183 185 182 180 176 173 175 174 173 171 164 150 133 128 128 86 48 33 17 23 22 28 25 13 16 8 10 14 15 60 132 170 218 233 209 89 78
142 111 75 74 133 115 168 148 132 132 221 225 225 226 201 280 238 201 193 188 124 150 141 150 171 147 171 180 160 161 156 153 153 153 153 155 158 159 162 164 167 169 171 174 174 175 175 174 176 175 177 179 180 184 183 183 184 184 186 186 186 187 186 184 179 174 176 179 178 175 168 157 143 135 139 110 14 339 348 8 17 23 22 17 18 12 17 16 11 8 344 221 243 240 256 280 347
87 79 78 56 193 187 167 163 144 141 187 201 208 214 179 42 258 243 149 213 184 167 164 167 177 147 160 164 152 155 154 154 153 150 150 152 155 155 158 161 164 169 174 177 177 177 177 177 178 179 181 183 184 185 185 186 184 186 190 189 187 190 190 186 182 178 178 183 183 178 172 167 160 158 159 161 300 306 329 357 11 14 14 11 9 5 9 9 5 360 349 312 270 264 277 297 350
75 83 110 259 189 187 178 166 151 144 160 182 198 203 154 148 217 211 118 234 243 189 182 169 158 119 143 147 149 154 154 155 155 153 153 153 156 156 158 161 163 169 176 180 181 180 181 180 180 182 183 185 187 187 189 189 185 190 195 193 191 192 194 188 185 183 181 183 183 182 179 176 175 169 171 194 278 306 315 338 7 3 1 359 359 351 346 352 353 355 356 347 319 295 296 317 350
113 130 112 262 200 187 179 157 145 140 152 168 185 196 154 156 186 151 147 223 219 193 169 144 130 117 135 145 150 156 157 158 158 158 159 160 162 162 162 164 166 170 176 181 184 184 184 183 183 184 185 187 189 190 193 193 187 193 199 197 196 196 195 192 190 189 184 182 183 184 184 186 189 188 194 211 285 304 305 315 13 356 347 351 349 327 328 341 346 346 343 342 331 312 305 318 334
189 141 105 259 204 177 193 161 149 139 144 149 166 181 146 159 180 160 182 200 192 183 153 137 140 141 145 151 155 159 161 163 162 161 164 166 169 168 166 168 170 174 178 181 184 186 187 187 188 188 188 189 190 192 195 197 193 197 203 201 203 204 203 200 199 198 192 190 191 189 188 191 194 207 217 216 249 274 296 302 330 341 325 332 334 318 325 333 338 336 334 337 329 315 306 314 320
193 157 190 238 170 136 217 174 138 130 135 138 151 145 131 171 196 195 168 146 190 205 174 155 154 154 152 157 162 164 165 168 167 164 168 170 171 173 172 172 174 177 179 181 183 186 190 191 192 192 192 192 192 195 198 200 200 203 207 205 207 211 213 212 209 208 204 202 200 193 191 199 203 203 204 211 231 259 300 296 269 318 310 312 317 311 312 318 327 333 336 334 326 314 309 317 318
177 211 212 211 137 128 229 175 138 131 129 134 144 148 144 164 194 205 165 159 207 220 188 160 156 157 158 161 165 168 170 171 171 168 170 173 173 174 176 177 178 180 180 181 184 186 191 193 195 194 195 196 195 198 201 203 204 207 210 208 210 213 217 217 213 212 210 208 206 200 198 205 214 216 211 222 246 270 297 283 242 282 299 292 290 294 294 300 315 326 332 328 323 318 314 318 316
141 241 227 203 167 149 212 174 148 138 128 148 163 163 148 145 200 201 177 198 217 220 189 157 156 159 159 161 164 171 175 176 176 173 173 175 175 175 177 180 181 183 183 185 186 187 191 194 196 196 195 197 199 202 204 206 208 211 211 208 210 210 211 212 212 213 212 212 211 212 209 208 222 232 226 235 261 268 278 277 248 257 277 272 270 285 287 287 300 319 333 335 334 329 325 327 315
145 235 229 208 189 177 193 171 153 147 148 172 163 143 149 169 179 158 201 232 229 228 182 152 152 156 158 163 169 175 179 179 179 177 177 177 178 178 178 181 184 185 187 188 188 189 193 194 195 196 195 197 200 202 206 208 210 212 210 207 207 204 206 207 208 211 211 211 212 216 216 217 235 242 230 239 261 262 265 269 263 275 281 266 262 282 286 284 297 321 337 342 348 343 342 345 323
212 229 216 194 194 205 195 165 152 154 164 157 139 148 194 193 159 148 222 245 242 211 158 147 149 154 162 169 172 177 182 183 180 177 180 181 180 181 182 184 184 186 189 190 189 191 195 195 195 195 196 199 201 202 207 209 209 210 208 207 206 202 205 206 204 208 208 208 212 216 217 221 235 240 233 242 256 258 259 258 270 292 287 262 264 281 284 290 306 324 332 338 346 338 343 354 328
219 211 192 174 198 207 179 162 163 165 175 142 140 176 218 206 155 176 234 233 224 173 149 150 153 158 167 172 174 178 182 187 184 178 180 183 182 183 186 188 187 189 192 192 191 192 193 194 196 196 197 201 201 203 208 210 208 209 208 209 208 204 207 206 204 210 211 214 219 219 220 223 231 235 238 245 250 252 256 256 270 290 283 265 276 288 289 294 308 318 322 330 337 326 330 356 347
200 194 185 179 191 198 164 170 180 167 177 159 157 195 216 203 171 241 244 199 164 148 146 155 159 164 169 171 177 180 183 189 189 182 179 183 184 184 187 192 193 193 193 194 194 193 192 193 195 196 198 201 202 205 210 211 211 211 211 210 210 209 210 209 209 214 218 221 225 226 225 228 234 238 241 244 246 247 250 253 263 276 276 277 281 289 295 297 304 306 310 317 320 315 312 341 351
178 167 168 203 178 238 158 168 185 162 183 175 153 179 210 176 194 231 215 173 154 142 141 154 163 172 172 172 177 181 187 188 189 190 185 185 187 186 187 192 194 194 194 195 196 195 193 194 194 196 198 201 203 208 212 214 214 214 213 212 214 217 217 216 215 219 224 225 229 232 229 231 239 242 240 241 243 242 243 247 253 262 270 282 283 283 291 298 300 295 295 300 299 298 299 321 335
163 148 141 220 67 333 233 189 183 161 189 181 137 68 249 190 216 225 186 164 152 145 144 142 157 169 169 172 176 180 186 186 189 194 194 191 190 189 189 192 193 194 196 196 196 195 195 196 196 198 201 203 205 209 212 216 219 217 215 213 216 219 219 221 220 222 229 232 233 234 229 233 243 244 241 242 245 242 238 240 246 255 262 270 277 281 289 297 297 292 290 291 289 288 298 322 334
159 145 121 105 66 299 243 217 162 157 191 167 137 305 249 216 218 213 175 162 149 148 160 148 141 150 151 160 169 175 179 184 190 192 194 195 195 195 194 195 194 196 197 194 195 195 195 197 198 200 203 206 208 209 211 216 220 219 217 216 217 219 221 222 222 225 233 236 237 234 231 236 245 247 244 245 248 242 236 238 245 253 257 258 267 278 281 283 289 291 291 287 287 294 307 328 337
152 131 43 103 125 266 254 218 149 157 213 143 125 260 255 241 224 198 175 165 155 159 169 157 150 148 147 151 160 173 179 187 194 193 193 194 196 198 199 197 196 198 197 194 195 196 195 196 199 201 203 207 208 209 211 216 220 219 217 219 220 222 223 221 220 226 232 233 232 231 232 238 246 251 249 247 248 242 237 241 245 247 248 248 255 269 274 276 285 292 295 293 294 301 309 322 331
137 129 304 273 170 256 282 241 168 166 208 127 126 245 263 262 237 188 170 167 160 166 171 164 165 160 161 164 163 177 187 194 205 203 197 193 195 200 201 200 196 197 198 195 195 196 197 197 199 201 203 207 208 210 212 216 219 218 218 220 221 224 225 222 219 224 228 228 227 228 232 240 249 254 252 250 250 243 239 243 245 239 239 251 256 259 271 275 278 289 297 298 301 306 312 319 322
342 124 224 240 166 227 295 264 199 168 127 138 168 226 269 265 238 173 169 172 164 167 172 169 172 169 169 171 170 178 184 198 215 222 207 194 193 199 203 204 201 199 200 197 194 194 196 198 200 201 203 206 208 210 212 216 218 219 221 221 222 223 225 225 222 222 226 230 232 234 239 246 251 253 251 253 254 248 242 245 244 234 242 264 272 263 264 269 268 284 299 304 307 309 314 320 320
273 102 228 232 168 175 229 267 220 166 137 182 196 225 260 271 231 169 175 175 165 170 175 173 175 175 176 174 175 182 183 196 209 216 213 200 195 200 205 205 204 205 205 199 194 194 195 196 198 199 202 204 206 209 210 215 218 220 224 225 225 225 226 231 230 224 224 228 234 239 243 247 249 251 252 252 254 253 246 245 241 233 246 268 282 266 253 265 275 287 300 305 307 306 311 319 317
198 194 213 265 191 175 215 239 189 169 177 194 181 227 253 267 258 177 182 178 168 176 178 177 180 176 177 178 180 186 187 197 206 208 209 205 203 206 206 204 208 212 210 203 197 196 195 196 198 199 200 202 204 208 210 213 217 219 223 227 228 227 229 234 230 223 222 229 236 240 242 245 248 251 253 249 251 255 249 245 239 234 245 264 284 268 241 253 271 284 301 304 303 301 305 312 312
202 182 176 244 242 203 223 238 183 168 178 201 189 218 241 246 234 191 187 180 172 177 178 181 184 179 181 184 184 186 193 201 204 204 203 204 210 214 207 203 210 216 212 206 201 199 198 198 199 200 200 201 202 204 206 209 211 214 219 222 225 226 229 229 224 223 227 236 241 240 240 244 249 251 251 249 249 254 252 248 240 232 239 256 274 268 246 250 262 279 300 308 307 301 297 299 305
203 141 209 278 287 259 230 234 199 166 166 211 205 223 245 239 219 199 187 182 178 175 182 190 188 185 186 189 189 188 198 203 199 201 201 202 210 218 214 207 213 219 212 207 204 201 201 200 200 200 200 200 199 200 202 205 206 210 214 218 221 222 224 225 225 228 234 241 242 239 240 244 249 250 248 247 249 251 251 250 242 231 234 246 259 266 263 255 259 276 289 299 304 301 295 288 295
3 8 320 311 293 263 241 218 191 160 157 224 213 226 251 244 219 201 181 183 193 184 186 194 191 193 192 190 192 190 194 188 184 196 199 201 208 217 218 214 218 221 207 202 201 199 200 201 201 200 199 198 198 199 201 203 206 209 212 215 217 217 220 224 228 231 235 241 242 240 242 247 250 249 245 245 248 248 248 248 242 234 231 235 250 259 261 256 260 270 277 287 291 290 293 283 284
338 311 324 312 287 293 292 258 160 149 155 242 216 211 249 257 225 203 189 189 200 192 189 192 188 190 194 194 192 187 186 178 181 190 191 197 205 211 216 219 223 222 208 199 197 197 198 200 202 201 199 198 198 200 201 203 206 209 211 214 216 216 220 226 230 234 237 240 243 244 247 251 251 246 242 243 244 242 245 246 243 238 230 230 243 250 253 258 262 266 270 280 279 278 284 277 274
303 279 72 285 286 334 297 295 117 153 187 218 193 196 269 296 223 202 204 199 200 193 191 194 188 187 193 197 190 182 185 185 188 192 192 195 200 205 211 218 220 220 218 208 200 199 199 199 199 199 198 198 198 199 201 204 206 209 210 213 217 217 221 226 230 236 239 241 244 248 251 253 249 241 237 239 239 239 243 245 243 240 233 231 238 242 250 258 261 267 267 268 271 274 280 279 280
289 215 169 241 263 245 246 246 106 147 241 242 124 73 318 320 155 202 216 219 218 191 184 199 205 193 188 191 189 186 189 187 187 192 195 196 199 202 206 212 214 215 220 214 205 204 205 202 198 195 196 196 197 199 201 202 203 205 207 210 215 217 220 223 227 232 238 242 244 247 252 251 240 233 233 234 236 239 241 244 243 241 236 230 233 240 249 256 262 269 264 259 263 267 275 284 290
316 257 223 236 225 220 74 101 106 116 269 254 134 82 302 313 296 209 202 213 224 190 174 206 215 193 174 181 189 193 195 194 191 192 195 196 199 201 204 208 211 216 218 213 209 208 207 205 200 194 193 193 195 198 199 200 200 201 203 206 210 214 219 222 225 231 238 242 243 244 248 242 231 227 229 232 235 238 240 244 242 238 235 225 228 245 253 254 263 265 256 256 262 266 274 279 284
342 256 249 278 284 14 57 99 111 147 237 252 158 141 255 317 286 227 196 194 220 200 183 211 212 191 184 186 187 190 194 197 195 195 196 198 198 197 201 205 208 215 216 213 213 210 206 203 199 196 194 193 195 196 197 198 199 201 204 207 211 215 220 225 228 233 241 244 241 240 243 238 228 225 229 233 235 237 238 241 239 233 233 228 232 249 254 253 262 264 255 259 270 277 271 265 274
284 247 251 332 342 344 6 106 135 212 234 305 360 114 129 279 261 240 83 74 255 254 220 225 218 203 192 186 191 194 194 193 191 194 195 194 193 195 199 203 206 210 211 213 216 210 204 200 198 197 197 195 195 196 197 198 200 202 205 208 212 216 221 227 229 234 243 244 237 236 239 236 228 225 230 234 235 236 236 235 234 233 233 232 234 243 247 251 260 263 261 263 270 274 265 258 267
259 259 299 323 313 302 286 254 259 279 20 336 317 70 92 276 292 1 50 54 280 276 271 262 233 213 194 188 197 202 200 195 191 192 194 192 191 196 199 201 205 206 206 209 217 212 202 200 198 196 196 196 196 196 197 199 202 204 205 207 212 217 222 228 229 234 243 238 233 235 236 231 225 224 229 233 235 237 237 235 235 237 235 233 235 239 241 245 254 261 262 260 261 266 263 258 262
255 285 324 319 311 292 272 219 190 23 45 262 273 30 106 323 328 352 34 334 262 256 255 250 227 211 199 195 198 205 207 202 199 196 196 196 196 200 201 201 203 205 205 208 216 215 201 197 197 195 195 196 196 197 198 200 203 204 206 208 212 217 221 226 227 232 236 229 228 231 227 222 223 224 226 230 234 237 237 236 237 237 238 237 238 240 238 237 245 256 259 256 257 262 257 249 253
257 337 350 330 328 334 330 112 101 63 353 254 283 44 92 58 340 335 330 266 243 211 217 223 196 199 213 215 206 205 206 202 203 203 201 200 201 204 203 204 204 202 206 212 217 214 199 194 194 193 195 195 196 197 198 200 202 204 208 210 214 217 219 223 225 228 230 225 223 223 220 220 224 225 226 227 230 232 233 235 237 238 239 239 240 245 242 234 236 247 256 258 258 254 247 248 254
32 54 43 11 334 354 17 6 45 82 276 262 77 70 71 72 324 317 326 327 341 127 142 116 118 143 257 267 257 230 230 222 210 204 201 196 196 201 201 206 207 199 203 214 218 208 195 191 192 191 192 194 195 197 198 200 202 204 209 212 214 218 220 222 224 224 227 226 226 228 228 227 226 225 225 226 226 226 227 230 235 237 237 237 240 249 246 231 231 240 251 258 259 252 244 246 250
51 65 58 55 354 4 18 349 17 109 253 256 136 84 70 90 253 327 345 359 17 44 66 68 57 36 21 15 19 12 346 306 258 230 214 200 189 195 197 202 205 199 201 210 215 206 192 188 191 191 192 194 195 197 198 200 202 205 209 212 215 219 220 222 225 225 225 227 228 231 233 228 223 221 221 223 224 222 223 227 231 234 234 235 240 247 242 227 226 233 247 260 264 258 250 246 245
35 75 83 91 90 40 353 300 357 341 274 274 93 90 93 205 338 341 356 12 23 41 53 57 52 41 31 24 24 20 18 13 348 319 268 235 209 198 196 199 203 202 202 205 210 209 197 187 188 191 192 194 196 197 199 201 204 207 209 212 215 217 217 219 223 224 225 228 228 228 233 231 222 219 219 221 222 220 223 227 231 234 234 237 241 240 233 224 223 232 250 262 264 258 252 247 247
338 163 128 117 147 131 207 231 161 251 272 300 35 78 116 172 240 301 346 22 30 38 40 43 44 36 27 17 18 16 11 10 2 351 337 313 278 224 203 198 201 202 203 203 205 207 201 191 189 191 191 193 195 197 198 201 204 206 209 211 214 216 216 218 221 223 224 227 228 229 233 232 225 222 222 224 224 222 224 229 232 235 236 238 240 235 229 230 234 242 250 252 243 235 239 243 248
284 163 92 89 190 147 171 202 172 191 264 352 16 55 119 147 174 298 356 29 32 29 22 24 26 22 22 13 7 9 3 358 353 348 343 333 317 271 219 203 202 203 202 201 202 203 201 195 192 193 193 193 194 196 198 201 203 205 207 210 213 215 217 219 221 224 226 228 231 233 235 231 226 224 225 229 230 226 226 230 233 237 238 238 237 233 229 233 241 243 240 240 240 243 253 259 257
296 349 332 258 192 133 123 287 346 62 77 61 109 125 200 166 113 346 7 29 27 23 15 15 14 12 21 13 358 355 354 351 342 336 330 321 321 299 240 212 204 201 200 200 201 201 201 198 195 195 195 193 194 198 199 201 202 203 206 209 212 215 217 220 223 225 228 230 233 239 237 230 227 227 227 233 236 232 230 232 235 239 239 237 236 233 228 232 241 239 234 242 250 250 258 264 259
23 320 264 272 31 88 95 56 359 33 64 244 150 125 158 247 360 341 359 21 16 4 357 353 353 6 13 6 356 349 344 341 330 325 323 312 318 316 276 228 209 201 200 200 200 198 198 201 199 193 191 194 197 199 198 198 199 202 206 210 212 215 219 221 224 226 230 232 235 238 233 227 229 232 231 235 239 237 235 234 236 239 238 236 235 232 230 233 238 235 235 245 246 238 245 254 254
46 292 264 62 41 2 27 55 41 16 303 285 38 76 119 182 205 289 340 2 344 335 346 347 347 6 11 357 348 343 343 341 333 328 326 317 310 316 309 267 223 207 202 201 199 195 193 200 201 193 193 201 202 199 194 195 201 205 208 212 214 216 219 221 224 226 229 230 232 234 231 226 230 234 233 235 238 238 239 237 236 237 236 236 234 231 233 235 234 233 238 242 234 226 233 241 246
5 350 355 53 131 166 261 235 132 152 231 233 35 23 249 220 216 203 219 251 270 309 340 336 333 358 14 351 333 336 344 340 330 325 319 314 307 305 311 306 252 213 204 202 199 195 192 195 198 195 197 204 204 197 192 195 204 209 210 212 214 216 219 221 223 226 227 229 229 230 230 229 231 236 236 236 238 238 238 237 236 235 233 234 235 232 233 234 233 234 235 231 222 216 220 228 239
335 349 339 336 2 80 5 341 100 129 144 153 149 297 264 243 219 191 203 225 227 215 350 331 326 351 2 339 326 334 342 335 326 320 313 308 307 304 308 319 298 217 203 199 197 194 192 194 195 193 194 199 201 198 194 198 206 209 210 211 214 216 218 220 222 226 227 228 228 229 230 230 234 239 240 241 240 236 232 232 233 232 230 231 233 232 232 232 231 230 227 222 218 215 216 227 239
269 260 292 320 47 78 66 342 314 72 111 151 160 206 262 252 197 186 201 209 202 154 58 351 332 347 346 326 323 331 333 331 322 317 317 307 303 306 306 319 328 212 196 195 192 187 188 194 195 193 193 197 201 199 197 202 207 208 209 213 215 216 217 218 221 224 226 226 227 229 229 229 234 240 243 243 236 227 225 226 225 223 224 225 228 229 230 231 230 228 225 223 221 222 226 233 239
Height
792 794 794 795 794 796 799 800 815 818 817 832 831 829 822 813 814 814 815 813 811 806 798 799 798 800 805 810 813 812 814 817 822 829 831 817 812 819 822 825 827 829 832 834 836 837 838 840 840 841 843 844 844 845 846 846 847 847 847 847 847 847 847 848 848 848 848 847 848 847 847 847 847 846 846 846 846 846 845 845 845 845 844 844 844 844 843 843 843 842 842 842 841 841 840 840 839
792 794 793 795 794 798 802 801 821 826 824 836 830 828 823 814 816 814 815 812 808 802 796 797 797 799 800 802 805 809 814 812 810 813 816 812 815 821 821 825 827 829 832 833 835 837 839 840 841 842 843 844 845 846 846 847 847 847 848 848 848 848 848 848 848 848 848 848 848 848 848 847 847 847 846 846 846 846 845 845 845 845 844 844 844 844 843 843 843 842 842 842 841 841 840 839 838
792 793 792 796 795 798 802 804 824 832 833 840 830 822 821 821 819 813 810 806 801 796 796 797 798 800 801 807 808 813 818 811 807 808 813 814 815 819 822 824 827 829 831 833 835 837 838 839 841 842 843 845 845 846 847 848 848 848 848 848 848 848 848 848 849 849 849 849 849 848 848 848 848 847 847 846 846 846 846 845 845 845 844 844 844 844 843 843 843 843 842 842 841 841 840 839 838
791 792 792 794 798 801 806 814 823 829 838 840 831 821 820 822 816 811 806 801 797 795 799 799 803 800 801 814 811 813 818 812 808 806 811 814 813 816 821 824 827 830 831 833 835 836 838 839 841 842 843 845 845 846 847 848 848 849 849 849 848 848 849 849 849 849 849 849 849 849 849 849 848 848 847 847 847 846 846 845 845 845 844 844 844 844 843 843 843 843 842 842 841 840 840 839 838
792 793 792 793 801 806 808 818 822 829 838 834 831 824 818 819 817 814 804 799 797 797 800 800 808 802 800 809 807 813 814 810 809 805 808 812 814 817 820 824 827 829 832 833 835 837 838 840 841 842 844 845 846 847 847 848 849 849 850 849 849 849 849 849 849 850 850 850 850 850 849 849 849 848 848 847 847 846 846 846 845 845 844 844 843 843 843 843 843 842 842 842 841 840 840 839 838
791 792 792 792 798 800 809 824 828 834 832 823 829 825 817 815 818 818 805 801 798 796 798 800 808 806 808 807 803 808 807 807 808 806 806 810 814 817 820 824 826 829 831 833 835 836 838 840 841 843 844 845 846 847 848 849 849 850 850 850 850 849 849 850 850 850 850 850 850 850 850 850 849 848 848 847 847 846 846 846 845 845 844 844 843 843 842 842 842 842 842 842 841 840 840 839 839
791 793 794 797 799 799 816 830 830 834 826 817 822 821 817 814 815 818 809 805 803 799 799 802 802 807 815 808 807 806 802 804 803 806 807 808 814 817 821 823 826 829 831 833 835 836 838 840 841 843 844 845 846 847 848 849 850 850 850 850 850 850 850 850 850 851 851 851 851 850 850 850 850 849 848 848 847 847 846 845 845 845 844 843 843 842 842 842 842 842 842 841 841 840 840 839 839
791 795 795 804 810 809 821 829 827 829 825 817 817 815 816 814 812 817 814 807 807 805 803 803 799 811 818 808 814 809 801 805 803 807 809 810 814 818 821 823 826 828 831 833 835 837 838 840 841 843 844 845 846 847 848 849 850 850 850 851 851 851 850 851 851 851 851 851 851 851 851 850 850 849 848 848 847 846 846 845 845 845 844 843 843 842 842 842 842 842 841 841 841 840 840 839 839
790 795 798 807 816 818 824 828 826 824 823 820 818 816 814 815 812 813 817 809 804 806 805 803 799 813 818 810 816 808 802 806 805 809 810 813 815 818 822 822 825 827 831 833 835 837 838 840 841 842 843 845 846 847 848 849 850 850 851 851 851 851 851 851 851 851 851 851 851 851 851 850 850 849 848 848 847 846 846 845 845 844 844 843 842 842 841 841 841 841 841 841 840 840 840 839 839
793 796 801 810 818 824 829 828 826 825 822 820 819 816 814 814 811 811 817 813 803 806 805 799 801 811 816 816 816 807 805 806 807 812 813 815 816 819 822 823 825 826 830 832 835 837 838 840 841 843 844 845 846 847 848 849 850 850 851 851 851 851 851 851 851 851 851 851 851 851 851 850 850 849 848 847 847 846 846 845 845 844 843 843 842 841 841 841 841 841 841 840 840 840 840 839 839
800 799 801 814 823 828 832 829 829 831 824 821 820 815 813 811 812 813 815 812 802 806 805 801 808 812 813 817 815 807 805 807 809 812 814 816 818 820 822 824 826 826 829 831 835 836 838 840 841 843 843 845 846 847 848 849 849 850 850 851 851 851 851 851 851 851 851 851 850 850 850 850 849 848 848 847 847 846 846 845 844 844 843 843 842 841 841 841 841 840 840 840 840 840 839 839 839
806 806 805 820 829 829 830 828 832 834 825 823 822 812 809 808 815 817 812 809 804 807 805 802 808 808 816 821 813 807 806 809 811 812 815 818 819 821 822 825 826 828 830 831 834 836 838 839 841 843 843 845 846 847 848 848 849 849 850 851 851 851 851 851 851 851 850 851 850 850 850 849 849 848 848 847 847 846 846 845 844 844 843 843 842 841 841 840 840 840 840 840 840 839 839 839 838
804 808 810 822 825 826 827 826 831 834 825 820 818 809 806 806 812 812 807 806 805 808 804 798 800 804 817 820 812 809 808 810 811 813 816 818 820 822 823 825 827 829 830 832 833 835 837 838 840 842 843 844 845 847 847 848 849 849 850 850 851 851 851 851 850 851 850 850 850 850 850 849 849 848 848 847 847 846 846 845 845 844 843 843 842 841 841 840 840 840 840 840 839 839 839 839 838
800 803 809 821 822 823 823 824 831 834 827 818 814 808 805 806 806 804 805 808 806 804 799 792 795 805 817 818 817 812 808 810 812 814 816 819 821 822 825 826 828 829 830 832 833 835 836 838 840 841 842 844 845 846 847 847 848 848 849 850 850 851 850 851 850 850 850 850 850 850 850 849 849 849 848 848 847 847 846 846 845 844 843 843 842 841 841 840 840 840 840 839 839 839 839 839 839
797 800 807 819 823 823 821 823 830 833 827 817 813 807 805 803 800 802 804 807 804 794 792 793 793 805 814 815 817 810 806 809 811 814 816 819 822 824 826 827 829 829 831 832 833 834 836 837 838 840 841 842 844 844 845 846 847 848 848 849 849 850 850 850 850 850 850 850 850 850 850 850 849 849 848 848 847 847 846 846 845 844 843 843 842 841 841 840 840 840 840 839 839 839 839 839 839
793 799 810 820 823 825 821 819 824 831 826 815 809 805 807 803 797 802 799 798 801 792 792 797 793 798 805 806 806 803 804 808 811 814 816 819 822 824 826 827 830 830 831 832 833 834 835 837 837 839 840 841 842 843 844 845 846 847 847 848 849 849 850 850 850 850 850 850 850 850 850 850 850 849 848 848 847 847 846 846 845 844 844 843 842 841 841 840 840 840 839 839 839 839 839 838 838
791 800 815 821 822 822 819 816 818 823 821 814 809 805 809 807 798 797 793 794 800 796 794 795 791 791 797 800 800 801 805 807 810 813 815 819 821 824 826 827 829 830 832 832 833 834 835 836 836 837 838 840 841 842 843 844 845 847 847 847 848 849 849 850 850 850 850 850 850 850 850 850 849 849 848 848 847 847 846 846 845 844 844 843 842 841 841 840 840 840 840 839 839 839 838 838 838
797 808 818 820 820 816 811 810 808 811 814 812 809 804 806 808 803 796 795 799 799 798 795 793 792 791 794 797 799 802 805 807 809 812 814 817 819 822 824 826 828 829 831 832 833 834 834 835 835 837 837 839 840 841 842 843 845 846 846 847 847 848 849 849 849 849 850 849 850 849 850 849 849 849 848 848 847 846 846 846 845 845 844 843 842 841 841 840 840 840 840 839 839 839 838 838 838
801 809 817 816 812 806 800 801 801 803 808 807 805 802 801 803 801 797 802 806 800 802 800 796 799 797 797 798 800 804 805 807 808 810 813 815 817 819 822 824 826 827 829 830 832 833 834 834 835 836 836 838 839 840 841 842 844 845 845 846 846 847 848 848 849 849 849 849 849 849 849 849 849 848 848 848 847 846 846 846 845 845 844 843 842 842 841 840 840 840 840 839 839 838 838 838 838
799 805 816 811 802 800 796 796 796 797 800 803 804 800 800 800 797 798 804 805 801 804 802 801 805 802 800 799 800 803 804 806 808 810 812 813 816 817 819 822 824 825 827 828 830 832 833 834 835 835 836 837 838 839 840 841 842 843 844 845 846 846 847 848 848 849 849 849 849 849 849 849 849 848 848 847 847 847 846 846 845 845 844 843 843 842 841 840 840 840 839 839 838 838 838 838 838
798 802 810 802 795 800 796 792 793 792 794 799 801 801 803 799 796 799 802 808 807 803 798 797 801 800 799 799 799 802 804 805 807 809 811 812 815 817 819 820 822 824 825 827 829 830 831 833 834 835 836 836 837 838 839 840 841 842 843 844 845 845 846 847 847 848 848 848 848 848 848 848 848 848 848 847 847 847 846 845 845 845 844 843 843 842 841 840 840 839 839 839 838 837 837 837 838
798 799 798 794 793 800 795 789 791 791 792 797 800 802 801 797 797 799 801 808 807 798 792 791 792 793 794 796 797 800 802 804 806 808 810 812 813 816 818 820 822 823 825 826 827 829 830 832 833 834 835 836 837 837 838 839 840 841 841 843 844 844 845 846 846 847 847 847 847 847 847 848 848 848 847 847 847 846 846 845 845 845 844 843 842 842 841 840 840 839 839 839 838 837 836 837 837
799 798 792 790 791 795 792 788 789 789 793 798 798 797 796 799 801 798 799 802 796 788 787 787 789 789 791 793 796 798 800 802 804 806 808 810 812 814 816 818 820 822 823 825 826 828 829 830 832 833 834 835 836 837 837 838 839 839 840 841 842 843 844 844 845 845 846 846 846 846 847 847 847 847 847 847 847 846 846 845 845 844 843 843 842 842 841 840 840 840 839 839 838 837 836 836 836
798 799 792 789 788 789 788 786 788 788 792 793 792 794 796 801 801 797 798 794 787 784 783 785 787 789 791 793 795 797 798 800 802 805 807 809 812 813 815 817 819 820 822 824 825 827 828 829 830 832 833 834 835 836 836 837 838 838 839 840 841 842 843 843 843 844 845 845 845 846 846 846 846 846 846 846 846 846 846 845 845 844 843 843 842 841 841 840 840 840 839 839 838 837 837 836 835
798 797 790 788 788 786 784 785 788 788 789 789 791 796 796 796 796 797 797 790 785 782 782 784 787 790 793 794 795 796 798 800 801 804 807 809 812 814 816 817 818 819 820 822 824 825 826 828 829 831 832 832 833 834 835 836 837 837 838 839 839 840 841 841 842 843 843 844 844 844 844 845 845 845 846 846 846 846 846 845 844 844 843 842 842 841 840 840 840 839 839 839 839 838 837 836 835
793 788 787 786 788 785 784 786 788 789 788 789 795 799 796 790 793 798 792 786 783 780 783 785 788 792 794 795 795 796 797 799 801 803 805 808 810 813 814 816 816 817 819 821 823 824 825 827 828 830 831 831 832 833 834 835 836 836 836 837 838 839 839 840 841 842 842 843 843 843 844 844 844 844 845 845 845 845 845 845 844 843 843 842 841 841 840 840 839 839 839 839 839 838 838 837 836
781 782 784 784 787 784 785 787 787 788 787 789 796 800 795 789 795 802 790 783 782 782 786 786 788 793 793 794 794 795 797 797 799 802 804 806 807 810 812 814 815 815 817 819 821 823 824 826 827 829 830 831 832 833 833 834 835 835 835 836 837 837 838 839 840 841 841 842 842 843 843 843 844 844 844 845 844 845 845 844 844 843 843 842 841 841 840 840 839 839 839 839 839 838 838 837 837
776 782 787 788 788 788 787 788 787 789 790 788 791 797 796 793 797 798 787 782 782 784 788 787 789 791 791 793 793 794 795 796 798 800 801 803 804 806 809 810 812 814 815 817 819 821 823 824 826 828 829 830 831 832 832 833 834 834 834 835 836 836 837 838 839 839 840 840 841 842 842 842 843 843 843 844 844 844 844 844 843 843 842 842 841 840 840 840 839 839 838 838 838 838 837 837 838
779 782 794 797 794 796 792 788 787 789 792 786 790 804 805 800 797 788 782 781 781 784 788 788 789 789 790 791 792 793 794 795 797 797 798 800 802 803 806 807 809 812 813 814 817 819 821 823 825 826 828 829 830 831 832 832 833 833 834 834 835 835 836 837 837 838 838 839 840 840 841 842 842 842 843 843 843 843 843 843 843 842 842 841 841 840 840 839 839 838 838 838 838 837 837 837 837
784 786 795 802 806 806 793 788 788 790 792 783 793 815 810 797 790 782 780 781 783 787 788 789 789 788 790 791 792 793 792 793 793 794 796 797 800 801 803 805 807 809 811 813 815 817 819 821 822 824 826 827 828 830 831 831 832 832 833 833 834 835 835 836 836 837 838 838 839 839 840 841 841 841 842 842 842 842 842 842 842 842 841 841 841 840 840 839 839 838 838 837 837 837 837 837 837
789 794 798 805 815 810 791 788 791 793 792 783 797 819 807 792 786 780 780 780 783 789 789 790 790 790 790 790 791 792 791 792 792 792 794 795 797 799 800 802 804 806 808 810 812 814 817 818 820 822 824 826 827 828 829 830 831 831 832 833 833 834 835 835 836 837 837 837 838 839 839 840 841 841 841 841 841 841 841 841 841 841 841 840 840 840 839 839 838 838 837 837 837 837 837 837 837
791 804 811 810 812 808 794 789 789 793 792 786 801 817 805 791 785 780 779 780 783 788 790 790 790 790 791 790 790 791 790 790 791 792 792 792 794 796 798 799 800 803 805 807 809 812 814 816 818 820 822 824 825 827 828 829 830 831 832 832 833 834 834 835 835 836 836 837 837 838 839 839 839 840 840 840 840 840 840 840 840 840 840 840 839 839 839 838 838 837 837 837 837 836 836 837 836
796 805 813 809 808 810 803 792 785 786 792 793 801 810 803 791 784 781 780 780 783 787 790 790 790 790 790 790 790 790 790 790 790 790 790 790 791 793 795 795 797 800 802 804 807 809 812 814 816 817 819 821 823 825 827 828 829 830 831 831 832 833 833 834 835 836 836 836 837 837 838 838 838 839 839 839 839 839 839 839 839 839 839 839 839 838 838 838 838 837 837 837 837 836 836 836 836
805 805 807 804 805 810 807 796 787 785 792 797 801 806 801 789 782 781 779 778 782 786 789 789 789 789 789 789 790 789 790 790 788 788 789 788 788 791 793 793 794 797 800 802 804 807 809 811 813 815 817 819 822 824 825 827 828 829 830 831 831 832 832 833 834 835 835 835 836 836 837 837 837 837 838 838 838 838 838 838 838 838 838 838 838 837 838 838 837 837 836 836 836 836 836 836 835
806 805 805 803 801 807 804 793 786 786 793 797 803 808 801 790 784 782 779 778 782 786 786 787 787 787 788 788 788 788 788 788 785 785 787 788 788 790 791 793 794 795 797 800 802 805 807 809 811 813 815 817 819 821 824 826 827 828 829 830 830 830 831 832 832 833 834 834 834 835 836 836 836 836 836 837 837 837 837 837 838 838 838 838 837 837 837 837 837 837 836 835 835 835 835 835 835
795 795 796 795 795 802 797 785 780 781 793 799 801 802 796 791 788 783 781 779 783 786 785 787 787 786 786 786 786 786 786 785 781 782 785 787 788 789 790 792 794 795 796 798 800 802 805 807 809 811 812 814 817 820 822 824 826 827 827 828 828 829 830 830 831 832 832 833 833 834 834 834 835 835 835 835 835 836 836 836 836 837 837 837 837 837 837 837 836 836 836 835 834 834 835 835 834
783 785 788 786 789 794 787 781 777 776 792 800 795 796 793 791 787 781 780 780 783 786 787 787 787 786 785 784 784 784 783 781 779 781 783 785 787 788 790 790 792 793 794 795 797 799 802 804 806 808 810 812 814 817 819 821 823 824 825 826 826 827 828 829 830 830 831 832 832 832 833 833 833 833 834 834 834 835 835 835 835 836 836 836 836 836 836 836 836 836 835 835 834 834 834 834 834
778 782 787 787 789 788 779 776 776 774 790 798 793 797 794 788 786 781 778 781 782 782 784 786 785 784 782 781 782 782 781 779 779 781 781 783 785 786 789 789 790 791 791 793 794 796 799 801 803 805 807 810 811 813 816 818 819 821 822 823 824 826 826 827 828 828 829 830 830 831 831 831 831 832 832 832 833 833 834 834 834 834 835 835 835 835 836 836 835 836 835 835 834 833 833 833 833
779 783 788 792 788 785 778 773 776 779 789 794 791 797 795 785 784 781 776 776 776 774 776 779 780 783 783 781 781 781 781 780 780 780 780 781 782 785 787 788 789 789 789 790 792 794 796 798 800 802 804 806 809 811 813 815 816 818 820 821 823 824 825 826 827 827 828 829 829 829 830 830 830 830 830 831 831 832 832 832 832 833 834 834 835 835 835 835 835 835 835 834 833 833 832 832 833
781 785 792 793 785 788 788 779 782 784 784 786 787 794 794 786 784 780 774 770 769 770 771 772 775 778 779 777 777 778 779 780 779 778 778 778 781 783 785 786 786 787 788 789 790 792 793 795 797 799 801 803 806 808 810 812 814 816 818 820 822 823 824 825 826 826 827 827 827 827 828 828 828 828 829 829 830 830 831 831 831 832 832 833 834 834 834 834 834 834 834 834 833 832 832 832 832
784 783 788 790 783 784 784 779 784 787 786 782 785 797 795 787 789 785 775 771 771 771 773 775 774 774 775 774 775 775 775 776 777 777 776 777 778 779 781 783 784 785 786 787 787 789 791 793 795 797 799 801 803 806 808 811 813 815 817 819 821 822 822 823 824 824 824 825 825 825 826 826 826 827 827 828 828 829 829 829 830 830 831 832 832 833 833 833 833 833 832 832 832 832 832 831 831
788 780 777 779 778 776 777 780 788 801 802 783 782 806 806 791 791 788 778 776 776 774 776 777 776 775 776 777 776 775 774 773 773 774 774 774 776 777 778 779 781 783 784 785 786 787 789 791 793 795 797 799 801 803 806 809 811 813 815 816 818 819 820 820 821 822 822 822 822 823 824 824 824 825 826 826 827 827 828 828 828 829 829 830 831 831 831 832 832 831 831 831 831 831 831 831 830
793 778 767 770 771 773 777 781 789 804 804 780 775 801 812 800 791 785 780 780 780 777 778 777 775 776 776 776 776 774 774 774 773 773 772 773 774 775 776 777 778 780 781 783 785 786 787 789 791 793 795 797 799 802 804 807 808 810 812 813 814 816 816 817 818 820 820 820 820 821 821 822 823 824 824 825 825 825 826 827 827 828 828 829 830 830 830 830 831 830 830 830 830 830 830 830 830
790 769 763 768 768 773 776 777 784 789 786 780 775 785 806 809 792 782 782 786 785 782 782 780 777 776 776 775 775 773 772 772 772 772 771 771 771 771 773 774 776 777 779 781 783 784 785 787 789 791 793 795 797 800 802 804 806 808 809 811 812 813 814 815 816 818 818 818 818 819 819 820 821 821 822 823 823 824 825 825 826 826 827 828 828 829 829 829 829 829 829 829 829 829 829 829 829
778 760 761 764 765 772 772 775 783 780 785 794 784 779 804 813 795 785 788 790 790 787 783 783 779 777 775 775 774 771 769 768 769 770 769 769 769 769 770 772 774 775 777 779 780 782 783 784 787 789 791 793 795 797 800 802 804 805 807 809 810 811 812 813 815 816 816 816 816 817 817 817 818 819 820 821 821 822 823 824 824 825 826 826 827 827 828 828 828 828 828 828 828 828 828 828 828
766 756 761 762 765 770 770 778 782 784 798 804 788 781 802 819 808 798 798 795 792 787 781 779 778 776 775 774 772 770 769 768 767 767 767 768 768 769 769 771 772 774 775 777 778 780 781 782 785 786 788 791 793 795 797 799 802 803 805 807 808 809 810 812 813 813 813 813 814 814 814 815 816 817 818 819 820 820 821 822 822 823 824 825 826 826 826 826 826 826 826 827 827 827 827 826 826
758 761 768 770 772 771 774 781 781 796 811 800 789 786 797 823 823 805 802 796 787 784 781 778 777 776 775 773 772 770 769 768 767 766 766 766 767 768 770 771 771 773 776 777 777 778 779 780 782 784 786 788 790 793 795 797 799 801 803 804 806 807 808 809 810 811 811 811 812 812 812 813 814 815 816 817 818 819 819 820 821 822 823 823 824 824 824 825 825 825 825 825 825 825 825 825 825
761 771 779 784 786 782 786 790 789 812 820 798 793 794 801 830 830 808 800 791 781 782 782 780 779 778 776 774 773 772 770 768 766 766 765 765 767 768 768 769 769 772 775 776 775 776 777 778 780 782 784 786 788 790 792 794 797 799 800 802 803 804 805 807 807 808 809 809 809 810 811 811 812 813 814 815 816 817 818 818 819 820 821 821 822 822 823 823 823 824 824 824 824 824 824 824 824
768 777 785 799 808 808 814 815 809 818 813 793 791 796 812 833 822 805 801 790 784 784 781 782 783 782 781 778 777 775 772 771 769 767 765 764 764 765 765 767 767 769 771 772 773 774 774 775 777 780 782 784 786 788 790 792 794 796 797 799 800 801 802 804 805 805 806 807 807 808 808 809 810 811 812 813 814 815 816 817 818 818 819 819 820 821 821 821 822 822 822 823 823 822 822 822 822
775 781 789 804 818 830 838 832 824 822 808 791 787 797 821 832 813 802 800 792 787 784 782 784 783 783 783 780 778 776 773 773 772 770 768 765 763 762 762 763 764 766 767 769 770 771 773 773 774 776 779 781 783 785 787 789 791 793 794 795 796 798 799 801 802 803 804 804 805 806 806 807 808 809 809 811 812 814 815 815 816 817 817 818 818 819 819 820 821 821 821 822 822 821 821 821 821
774 774 782 797 805 820 833 827 825 825 810 796 795 807 828 833 816 801 794 789 785 783 783 782 781 782 780 778 777 776 775 774 773 772 770 767 764 762 761 761 762 763 764 766 768 769 770 771 772 773 775 778 780 782 784 786 788 789 791 792 794 795 797 798 800 800 801 802 803 804 804 805 806 807 808 809 811 812 813 814 815 815 816 816 817 818 818 818 819 820 820 821 821 821 821 821 821
774 767 779 792 788 794 809 811 810 811 809 810 814 820 822 817 807 797 792 790 787 786 785 783 784 783 781 781 781 780 779 776 774 773 770 767 765 763 761 759 759 760 761 763 764 766 767 768 769 770 772 774 777 779 781 782 784 786 788 790 791 793 795 796 798 799 800 801 802 803 803 804 805 806 807 809 810 811 812 813 813 814 814 815 816 816 816 817 817 818 819 819 820 820 820 820 820
778 776 783 780 770 777 798 807 801 801 817 826 825 826 820 812 808 800 797 797 794 793 791 788 788 786 785 787 784 782 781 778 776 774 770 768 764 762 760 757 757 757 759 760 761 762 764 766 767 768 769 772 774 776 777 779 782 784 786 788 790 792 793 795 796 797 799 800 801 802 802 803 804 805 807 808 809 809 810 811 812 812 813 813 814 815 815 815 816 817 817 818 818 818 819 819 819
780 788 781 768 768 775 790 809 813 816 829 827 823 830 830 827 823 809 802 804 801 799 797 793 791 789 788 788 785 783 780 778 777 774 771 767 763 760 758 755 754 754 755 757 758 759 761 764 765 766 769 771 771 772 775 779 781 783 784 786 787 789 790 792 794 796 798 799 800 800 801 802 803 804 805 806 807 808 809 810 810 811 811 812 813 813 814 814 814 815 816 816 816 817 817 817 817
771 778 767 771 793 797 795 809 821 829 835 828 828 835 834 832 828 816 810 810 805 802 798 795 793 790 789 787 784 782 780 778 776 773 771 767 762 759 756 754 753 752 754 755 756 757 758 761 763 764 767 769 769 771 774 778 779 778 780 782 783 786 787 789 791 793 795 796 797 798 799 800 801 802 803 804 805 806 807 808 808 809 810 811 812 812 812 813 814 814 814 814 815 815 815 815 816
766 769 767 773 789 796 796 801 810 823 832 833 835 838 835 827 818 813 811 807 804 803 800 796 793 791 790 788 785 782 781 780 777 773 770 766 762 759 755 753 751 750 752 753 754 756 756 759 760 761 763 765 766 769 771 774 775 775 777 779 780 782 784 786 788 790 792 792 794 796 797 799 800 800 801 802 803 804 805 806 806 807 808 809 810 811 811 812 812 813 813 813 813 813 814 814 814
782 785 785 783 783 786 791 795 798 807 822 832 836 840 835 817 804 805 805 801 800 800 798 796 793 791 790 787 784 783 781 780 777 773 770 765 761 758 753 751 749 748 750 751 752 754 755 756 757 758 760 762 764 766 768 770 770 772 774 776 777 779 781 783 785 787 789 790 792 794 795 797 798 798 799 799 800 801 802 803 804 805 807 808 808 809 810 811 811 812 812 812 812 812 813 813 813
785 789 788 788 787 790 803 811 802 798 812 823 828 837 831 807 796 799 798 797 797 796 797 796 793 791 790 786 783 783 782 780 776 772 769 765 760 757 753 750 747 747 747 748 750 752 753 754 755 756 758 759 760 762 764 766 767 768 771 772 774 776 778 780 782 784 786 787 790 792 793 795 795 796 797 798 799 799 800 801 802 803 804 805 806 807 809 810 810 811 811 811 812 811 812 811 811